This is the latest recevied weather packets stored in our database for station/object N8JE-13. If no packets are shown the sender has not sent any weather packets the latest 1 day(s).
| Time | Temp. | Humidity | Pressure | Rain* | Wind** | Luminosity | Snow |
|---|---|---|---|---|---|---|---|
| 1777973151 | 15° C | 82% | 1006.6 hPa | 0.25 mm | 0.45 m/s, 195° | - | - |
| 1777972851 | 15.56° C | 80% | 1006.6 hPa | 0 mm | 0.45 m/s, 256° | - | - |
| 1777972551 | 15.56° C | 79% | 1006.5 hPa | 0 mm | 0.89 m/s, 305° | - | - |
| 1777972252 | 15.56° C | 79% | 1006.6 hPa | 0 mm | 0.89 m/s, 292° | - | - |
| 1777971952 | 15.56° C | 78% | 1006.3 hPa | 0 mm | 0.89 m/s, 279° | - | - |
| 1777971651 | 16.11° C | 76% | 1006.1 hPa | 0 mm | 0 m/s | - | - |
| 1777971350 | 16.11° C | 75% | 1006.2 hPa | 0 mm | 0.89 m/s, 252° | - | - |
| 1777971050 | 16.11° C | 74% | 1006.1 hPa | 0 mm | 0.89 m/s, 275° | - | - |
| 1777970752 | 16.67° C | 73% | 1006 hPa | 0 mm | 0.89 m/s, 266° | - | - |
| 1777970452 | 16.67° C | 73% | 1006.1 hPa | 0 mm | 0.89 m/s, 316° | - | - |
| 1777970152 | 16.67° C | 72% | 1006.1 hPa | 0 mm | 0.89 m/s, 258° | - | - |
| 1777969851 | 16.67° C | 71% | 1006 hPa | 0 mm | 0.89 m/s, 292° | - | - |
| 1777969551 | 17.22° C | 71% | 1005.9 hPa | 0 mm | 2.24 m/s, 336° | - | - |
| 1777969251 | 17.22° C | 70% | 1005.8 hPa | 0 mm | 1.34 m/s, 323° | - | - |
| 1777968951 | 17.78° C | 69% | 1005.8 hPa | 0 mm | 0.89 m/s, 316° | - | - |
| 1777968651 | 17.78° C | 68% | 1005.8 hPa | 0 mm | 2.68 m/s, 313° | - | - |
| 1777968350 | 18.33° C | 66% | 1005.9 hPa | 0 mm | 2.68 m/s, 320° | - | - |
| 1777968050 | 18.33° C | 64% | 1005.8 hPa | 0 mm | 1.34 m/s, 299° | - | - |
| 1777967750 | 18.89° C | 62% | 1005.5 hPa | 0 mm | 1.34 m/s, 270° | - | - |
| 1777967452 | 18.89° C | 61% | 1005.3 hPa | 0 mm | 1.34 m/s, 265° | - | - |
| 1777967152 | 19.44° C | 60% | 1005.3 hPa | 0 mm | 2.24 m/s, 252° | - | - |
| 1777966851 | 19.44° C | 60% | 1005.2 hPa | 0 mm | 1.34 m/s, 221° | - | - |
| 1777966550 | 19.44° C | 61% | 1005.1 hPa | 0 mm | 2.24 m/s, 275° | - | - |
| 1777966250 | 18.89° C | 61% | 1005 hPa | 0 mm | 2.24 m/s, 252° | - | - |
| 1777965951 | 18.89° C | 62% | 1004.9 hPa | 0 mm | 1.34 m/s, 273° | - | - |
* Rain latest hour (hover to see other rain measurements)
** Current wind speed in m/s (hover to see current wind gust speed)